AVA029E SLLP-SLVR

Flight info

Callsign AVA029E
Flight time 0h 49m
Altitude 37000
Route DAKOG UW677 VIR
Aircraft A319/M-SDE3FGHIRWY/LB1

Departure

Time 2026-04-26 15:30
Airport El Alto International Airport (SLLP)

Arrival

Time 2026-04-26 16:19
Airport Viru Viru International Airport (SLVR)
Time Latitude Longitude Altitude Speed Heading
2026-04-26 15:27 -16.51293 -68.20491 13156 ft 37 kts 272°
2026-04-26 15:28 -16.51287 -68.20742 13142 ft 36 kts 272°
2026-04-26 15:28 -16.51279 -68.20939 13134 ft 23 kts 273°
2026-04-26 15:28 -16.51256 -68.21054 13128 ft 11 kts 282°
2026-04-26 15:28 -16.51276 -68.21049 13129 ft 3 kts 102°
2026-04-26 15:29 -16.51276 -68.21042 13129 ft 0 kts 91°
2026-04-26 15:29 -16.51280 -68.20865 13137 ft 54 kts 91°
2026-04-26 15:30 -16.51331 -68.19349 13221 ft 149 kts 92°
2026-04-26 15:30 -16.51373 -68.18150 13460 ft 170 kts 95°
2026-04-26 15:30 -16.51423 -68.16945 14209 ft 165 kts 92°
2026-04-26 15:31 -16.51444 -68.15734 14676 ft 171 kts 90°
2026-04-26 15:31 -16.51759 -68.13116 15136 ft 206 kts 123°
2026-04-26 15:31 -16.52913 -68.12143 15291 ft 228 kts 159°
2026-04-26 15:32 -16.55217 -68.11420 15635 ft 256 kts 163°
2026-04-26 15:32 -16.56223 -68.11098 15982 ft 260 kts 163°
2026-04-26 15:32 -16.57956 -68.10530 16682 ft 263 kts 162°
2026-04-26 15:33 -16.59715 -68.09946 17394 ft 266 kts 162°
2026-04-26 15:33 -16.61490 -68.09351 18106 ft 270 kts 162°
2026-04-26 15:33 -16.63286 -68.08746 18815 ft 273 kts 162°
2026-04-26 15:33 -16.65056 -68.07990 19395 ft 278 kts 147°
2026-04-26 15:34 -16.66474 -68.06616 19969 ft 281 kts 131°
2026-04-26 15:34 -16.67784 -68.05091 20592 ft 284 kts 131°
2026-04-26 15:34 -16.69112 -68.03548 21197 ft 287 kts 131°
2026-04-26 15:34 -16.70461 -68.01985 21794 ft 291 kts 131°
2026-04-26 15:35 -16.71819 -68.00414 22421 ft 294 kts 131°
2026-04-26 15:35 -16.73199 -67.98821 23049 ft 297 kts 131°
2026-04-26 15:35 -16.74458 -67.97108 23655 ft 299 kts 116°
2026-04-26 15:35 -16.75158 -67.95047 23858 ft 316 kts 104°
2026-04-26 15:36 -16.75724 -67.92750 23948 ft 337 kts 103°
2026-04-26 15:36 -16.76299 -67.90304 24053 ft 357 kts 103°
2026-04-26 15:36 -16.76896 -67.87720 24172 ft 376 kts 103°
2026-04-26 15:36 -16.77523 -67.85006 24278 ft 393 kts 103°
2026-04-26 15:37 -16.78184 -67.82176 24469 ft 407 kts 103°
2026-04-26 15:37 -16.78869 -67.79278 24910 ft 413 kts 103°
2026-04-26 15:37 -16.79564 -67.76354 25368 ft 417 kts 103°
2026-04-26 15:37 -16.80266 -67.73409 25845 ft 421 kts 103°
2026-04-26 15:38 -16.80973 -67.70427 26347 ft 423 kts 103°
2026-04-26 15:38 -16.81338 -67.67419 27133 ft 418 kts 90°
2026-04-26 15:38 -16.81438 -67.64351 27396 ft 428 kts 95°
2026-04-26 15:38 -16.81819 -67.61252 27801 ft 433 kts 98°
2026-04-26 15:39 -16.82277 -67.58126 28238 ft 437 kts 98°
2026-04-26 15:39 -16.82738 -67.54978 28689 ft 441 kts 98°
2026-04-26 15:39 -16.83201 -67.51808 29193 ft 443 kts 99°
2026-04-26 15:39 -16.83522 -67.49702 29504 ft 446 kts 99°
2026-04-26 15:40 -16.84221 -67.45449 30103 ft 450 kts 100°
2026-04-26 15:40 -16.84779 -67.42226 30509 ft 453 kts 100°
2026-04-26 15:40 -16.85351 -67.38978 30885 ft 456 kts 100°
2026-04-26 15:40 -16.85925 -67.35712 31276 ft 459 kts 100°
2026-04-26 15:41 -16.86498 -67.32412 31660 ft 461 kts 100°
2026-04-26 15:41 -16.87063 -67.29103 32040 ft 463 kts 99°
2026-04-26 15:41 -16.87623 -67.25791 32619 ft 461 kts 99°
2026-04-26 15:41 -16.88174 -67.22506 33161 ft 460 kts 99°
2026-04-26 15:42 -16.88725 -67.19216 33710 ft 459 kts 99°
2026-04-26 15:42 -16.89272 -67.15935 34303 ft 456 kts 99°
2026-04-26 15:42 -16.89816 -67.12682 34761 ft 456 kts 99°
2026-04-26 15:42 -16.90357 -67.09460 35214 ft 456 kts 99°
2026-04-26 15:43 -16.90901 -67.06210 35670 ft 455 kts 99°
2026-04-26 15:43 -16.91450 -67.02952 36101 ft 454 kts 99°
2026-04-26 15:43 -16.92542 -66.96476 36986 ft 452 kts 99°
2026-04-26 15:44 -16.93086 -66.93236 37412 ft 452 kts 99°
2026-04-26 15:44 -16.94158 -66.86791 38195 ft 451 kts 98°
2026-04-26 15:44 -16.94695 -66.83562 38591 ft 450 kts 99°
2026-04-26 15:45 -16.95776 -66.77105 39200 ft 451 kts 98°
2026-04-26 15:45 -16.96312 -66.73878 39297 ft 451 kts 98°
2026-04-26 15:46 -16.97906 -66.64224 39301 ft 451 kts 98°
2026-04-26 15:46 -16.98804 -66.58816 39329 ft 451 kts 99°
2026-04-26 15:47 -17.00591 -66.48073 39350 ft 451 kts 99°
2026-04-26 15:48 -17.01666 -66.41536 39349 ft 464 kts 98°
2026-04-26 15:48 -17.02770 -66.34807 39359 ft 473 kts 99°
2026-04-26 15:49 -17.03885 -66.28020 39360 ft 475 kts 98°
2026-04-26 15:49 -17.04992 -66.21215 39345 ft 475 kts 99°
2026-04-26 15:50 -17.06106 -66.14399 39343 ft 475 kts 98°
2026-04-26 15:50 -17.07218 -66.07598 39329 ft 475 kts 99°
2026-04-26 15:51 -17.08335 -66.00771 39333 ft 476 kts 98°
2026-04-26 15:51 -17.09428 -65.93995 39314 ft 476 kts 98°
2026-04-26 15:52 -17.10529 -65.87162 39308 ft 476 kts 98°
2026-04-26 15:52 -17.11645 -65.80288 39275 ft 476 kts 98°
2026-04-26 15:53 -17.12741 -65.73504 39242 ft 476 kts 98°
2026-04-26 15:53 -17.13836 -65.66674 39242 ft 476 kts 98°
2026-04-26 15:54 -17.14931 -65.59851 39258 ft 476 kts 98°
2026-04-26 15:54 -17.16023 -65.53015 39254 ft 476 kts 98°
2026-04-26 15:55 -17.17111 -65.46185 39207 ft 475 kts 98°
2026-04-26 15:55 -17.18200 -65.39369 39208 ft 475 kts 98°
2026-04-26 15:56 -17.19285 -65.32544 39174 ft 475 kts 98°
2026-04-26 15:56 -17.20380 -65.25728 39172 ft 474 kts 98°
2026-04-26 15:56 -17.20923 -65.22330 38716 ft 472 kts 98°
2026-04-26 15:57 -17.21455 -65.18960 38241 ft 469 kts 98°
2026-04-26 15:57 -17.21982 -65.15602 37754 ft 466 kts 98°
2026-04-26 15:57 -17.22503 -65.12270 37285 ft 462 kts 98°
2026-04-26 15:57 -17.22848 -65.10067 36963 ft 460 kts 98°
2026-04-26 15:58 -17.23539 -65.05677 36331 ft 456 kts 98°
2026-04-26 15:58 -17.24053 -65.02419 35884 ft 452 kts 99°
2026-04-26 15:58 -17.24555 -64.99222 35459 ft 449 kts 99°
2026-04-26 15:58 -17.25060 -64.96015 34982 ft 446 kts 98°
2026-04-26 15:59 -17.25561 -64.92833 34522 ft 440 kts 99°
2026-04-26 15:59 -17.26064 -64.89637 33463 ft 450 kts 99°
2026-04-26 15:59 -17.26572 -64.86385 32578 ft 454 kts 99°
2026-04-26 15:59 -17.27082 -64.83106 31709 ft 459 kts 100°
2026-04-26 16:00 -17.27596 -64.79805 31027 ft 458 kts 100°
2026-04-26 16:00 -17.28113 -64.76489 30143 ft 462 kts 100°
2026-04-26 16:00 -17.28632 -64.73180 29382 ft 460 kts 100°
2026-04-26 16:00 -17.29149 -64.69872 28515 ft 459 kts 100°
2026-04-26 16:01 -17.29663 -64.66580 27621 ft 460 kts 99°
2026-04-26 16:01 -17.30178 -64.63287 26904 ft 457 kts 99°
2026-04-26 16:01 -17.30688 -64.60014 26212 ft 453 kts 99°
2026-04-26 16:01 -17.31192 -64.56779 25647 ft 447 kts 99°
2026-04-26 16:02 -17.31685 -64.53599 25291 ft 436 kts 98°
2026-04-26 16:02 -17.32163 -64.50509 24953 ft 426 kts 98°
2026-04-26 16:02 -17.32625 -64.47515 24600 ft 418 kts 98°
2026-04-26 16:02 -17.32935 -64.45495 24375 ft 413 kts 97°
2026-04-26 16:03 -17.33531 -64.41602 23939 ft 405 kts 97°
2026-04-26 16:03 -17.33974 -64.38712 23606 ft 400 kts 98°
2026-04-26 16:03 -17.34413 -64.35860 23206 ft 394 kts 97°
2026-04-26 16:03 -17.34849 -64.33045 22825 ft 389 kts 97°
2026-04-26 16:04 -17.35278 -64.30268 22467 ft 385 kts 98°
2026-04-26 16:04 -17.35703 -64.27514 22093 ft 381 kts 97°
2026-04-26 16:04 -17.36122 -64.24794 21725 ft 377 kts 97°
2026-04-26 16:04 -17.36535 -64.22094 21336 ft 373 kts 97°
2026-04-26 16:05 -17.36942 -64.19425 20973 ft 369 kts 98°
2026-04-26 16:05 -17.37346 -64.16781 20618 ft 366 kts 98°
2026-04-26 16:05 -17.37745 -64.14170 20266 ft 363 kts 98°
2026-04-26 16:05 -17.38142 -64.11572 19920 ft 360 kts 98°
2026-04-26 16:06 -17.38540 -64.08988 19558 ft 358 kts 98°
2026-04-26 16:06 -17.38930 -64.06425 19219 ft 355 kts 98°
2026-04-26 16:06 -17.39316 -64.03880 18884 ft 354 kts 98°
2026-04-26 16:06 -17.39702 -64.01340 18550 ft 352 kts 97°
2026-04-26 16:07 -17.40082 -63.98818 18202 ft 350 kts 97°
2026-04-26 16:07 -17.40459 -63.96302 17806 ft 349 kts 97°
2026-04-26 16:07 -17.40838 -63.93797 17429 ft 348 kts 98°
2026-04-26 16:07 -17.41221 -63.91297 17055 ft 347 kts 98°
2026-04-26 16:08 -17.41479 -63.89621 16807 ft 346 kts 98°
2026-04-26 16:08 -17.41856 -63.87148 16456 ft 342 kts 97°
2026-04-26 16:08 -17.42222 -63.84731 16083 ft 337 kts 97°
2026-04-26 16:08 -17.42587 -63.82321 15724 ft 333 kts 97°
2026-04-26 16:09 -17.42946 -63.79941 15359 ft 328 kts 97°
2026-04-26 16:09 -17.43298 -63.77601 14993 ft 322 kts 97°
2026-04-26 16:09 -17.43650 -63.75260 14530 ft 320 kts 97°
2026-04-26 16:09 -17.43992 -63.72994 14062 ft 318 kts 97°
2026-04-26 16:10 -17.44337 -63.70709 13594 ft 316 kts 97°
2026-04-26 16:10 -17.44684 -63.68410 13076 ft 315 kts 97°
2026-04-26 16:10 -17.45019 -63.66180 12586 ft 313 kts 97°
2026-04-26 16:10 -17.45360 -63.63906 12088 ft 311 kts 97°
2026-04-26 16:11 -17.45688 -63.61707 11602 ft 309 kts 97°
2026-04-26 16:11 -17.46022 -63.59467 10999 ft 313 kts 97°
2026-04-26 16:11 -17.46359 -63.57205 10423 ft 313 kts 96°
2026-04-26 16:11 -17.46692 -63.54963 9874 ft 312 kts 96°
2026-04-26 16:12 -17.47028 -63.52721 9291 ft 309 kts 96°
2026-04-26 16:12 -17.47361 -63.50503 8706 ft 307 kts 96°
2026-04-26 16:12 -17.48018 -63.46120 7624 ft 302 kts 96°
2026-04-26 16:13 -17.48343 -63.43956 7153 ft 299 kts 96°
2026-04-26 16:13 -17.48662 -63.41816 6670 ft 296 kts 96°
2026-04-26 16:13 -17.48976 -63.39696 6211 ft 291 kts 96°
2026-04-26 16:13 -17.49281 -63.37640 5831 ft 282 kts 96°
2026-04-26 16:14 -17.49577 -63.35648 5452 ft 272 kts 96°
2026-04-26 16:14 -17.49865 -63.33716 5089 ft 263 kts 96°
2026-04-26 16:14 -17.50409 -63.30092 4502 ft 244 kts 95°
2026-04-26 16:15 -17.50665 -63.28366 4253 ft 235 kts 95°
2026-04-26 16:15 -17.50911 -63.26712 4051 ft 225 kts 96°
2026-04-26 16:15 -17.51148 -63.25123 3864 ft 215 kts 95°
2026-04-26 16:16 -17.52036 -63.22308 3407 ft 204 kts 133°
2026-04-26 16:16 -17.53161 -63.21424 3073 ft 203 kts 148°
2026-04-26 16:16 -17.54327 -63.20626 2950 ft 194 kts 149°
2026-04-26 16:16 -17.55419 -63.19906 2965 ft 175 kts 151°
2026-04-26 16:17 -17.56412 -63.19274 2911 ft 163 kts 152°
2026-04-26 16:17 -17.57369 -63.18667 2708 ft 158 kts 152°
2026-04-26 16:17 -17.58284 -63.18049 2523 ft 155 kts 147°
2026-04-26 16:17 -17.59149 -63.17399 2333 ft 151 kts 146°
2026-04-26 16:18 -17.59973 -63.16722 2131 ft 151 kts 137°
2026-04-26 16:18 -17.61569 -63.15485 1631 ft 132 kts 151°
2026-04-26 16:19 -17.63025 -63.14508 1274 ft 121 kts 148°
2026-04-26 16:19 -17.63609 -63.14122 1226 ft 61 kts 147°
2026-04-26 16:19 -17.63916 -63.14022 1225 ft 16 kts 237°
2026-04-26 16:20 -17.63991 -63.14086 1227 ft 14 kts 180°
2026-04-26 16:20 -17.64173 -63.13976 1227 ft 17 kts 148°
2026-04-26 16:20 -17.64277 -63.13909 1228 ft 18 kts 147°
2026-04-26 16:21 -17.64365 -63.13854 1228 ft 10 kts 163°
2026-04-26 16:21 -17.64423 -63.13900 1228 ft 12 kts 237°
2026-04-26 16:21 -17.64473 -63.13982 1228 ft 15 kts 236°
2026-04-26 16:21 -17.64540 -63.14022 1228 ft 12 kts 167°
2026-04-26 16:22 -17.64608 -63.13975 1228 ft 11 kts 144°
2026-04-26 16:22 -17.64646 -63.13967 1228 ft 4 kts 220°
2026-04-26 16:22 -17.64661 -63.13986 1228 ft 1 kts 185°
2026-04-26 16:22 -17.64690 -63.13983 1228 ft 7 kts 181°
2026-04-26 16:23 -17.64707 -63.14001 1228 ft 4 kts 241°
2026-04-26 16:23 -17.64710 -63.14005 1228 ft 0 kts 237°